Tracking 35334 objects as of 12-Sep-2026
HD Live streaming from Space Station
objects crossing your sky now

COSMOS 324


COSMOS 324 is no longer on orbit


NORAD ID: 4338
Int'l Code: 1970-014A
Launch date: February 27, 1970
Source: Commonwealth of Independent States (former USSR) (CIS)
Launch site: PLESETSK MISSILE AND SPACE COMPLEX (PKMTR)
Decay date: 1970-05-23
Your satellite tracking list
Your tracking list is empty




NASA's NSSDC Master Catalog

Two Line Element Set (TLE):
1 04338U 70014  A 70142.82559226  .04664410 +00000-0 +00000-0 0  9998
2 04338 071.0041 187.9262 0000969 268.1197 091.9876 16.40123513013343
Source of the keplerian elements: AFSPC